Snowfall_Accumulation
0.0 0.0 0.0 0.0 0.0 0.0 0.0 0.1 2.5 3.9 0.4 0.0 0.0 0.0 0.0 0.0 0.0 0.0 0.0 0.0 0.0 0.0 0.0 0.0 0.0 0.0 0.0 0.0 0.0 0.0 0.0 0.0 0.0 0.0 0.0 0.0 0.0 0.0
0.0 0.0 0.0 0.0 0.0 0.0 0.0 0.0 0.3 0.8 0.8 0.0 0.0 0.0 0.0 0.0 0.0 0.0 0.0 0.0 0.0 0.0 0.0 0.0 0.0 0.0 0.0 0.0 0.0 0.0 0.0 0.0 0.0 0.0 0.0 0.0 0.0 0.0
0.2 0.3 0.2 0.0 0.1 0.0 0.0 0.0 0.0 0.1 0.2 0.0 0.0 0.0 0.0 0.0 0.0 0.0 0.0 0.0 0.0 0.0 0.0 0.0 0.0 0.0 0.0 0.0 0.0 0.0 0.0 0.0 0.0 0.0 0.0 0.0 0.0 0.0
0.5 0.9 1.5 0.8 1.1 0.3 0.2 0.0 0.1 0.1 0.1 0.0 0.0 0.0 0.0 0.0 0.0 0.0 0.0 0.0 0.0 0.0 0.0 0.0 0.0 0.0 0.0 0.0 0.0 0.0 0.0 0.0 0.0 0.0 0.0 0.0 0.0 0.0
3.7 2.5 2.4 1.8 3.6 3.1 2.0 1.1 0.3 0.5 0.8 0.2 0.1 0.0 0.0 0.0 0.0 0.0 0.0 0.0 0.0 0.0 0.0 0.0 0.0 0.0 0.0 0.0 0.0 0.0 0.0 0.0 0.0 0.0 0.0 0.0 0.0 0.0
2.3 2.6 2.9 1.8 4.5 4.7 4.5 5.1 4.0 2.4 1.6 1.6 0.5 0.2 0.1 0.0 0.0 0.1 0.0 0.0 0.0 0.0 0.0 0.0 0.0 0.0 0.0 0.0 0.0 0.0 0.0 0.0 0.0 0.0 0.0 0.0 0.0 0.0
0.4 0.4 0.6 0.4 1.0 2.1 3.2 4.4 2.9 5.4 4.9 3.5 2.3 0.8 0.1 0.0 0.2 0.2 0.4 0.1 0.0 0.0 0.0 0.0 0.0 0.0 0.0 0.0 0.0 0.0 0.0 0.0 0.0 0.0 0.0 0.0 0.0 0.0
5.7 3.3 1.7 0.3 2.0 0.5 0.6 1.7 3.1 5.6 5.4 4.7 4.1 3.3 1.3 0.4 0.4 0.9 0.4 0.5 0.5 0.0 0.2 0.1 0.0 0.0 0.0 0.4 0.0 0.1 0.0 0.0 0.1 0.0 0.0 0.0 0.0 0.2
7.2 7.9 6.1 6.2 4.0 2.5 2.9 1.7 1.5 1.3 3.8 4.3 4.1 3.0 3.1 1.7 1.1 0.7 0.8 2.3 1.7 0.0 0.1 0.3 0.0 0.1 0.0 0.0 0.0 0.0 0.0 0.0 0.0 0.0 0.0 0.0 0.0 0.0
3.3 2.9 1.7 1.6 3.3 2.4 4.3 4.3 2.6 2.7 3.3 5.1 7.2 7.1 6.7 5.7 3.2 3.1 1.4 1.8 0.7 2.2 0.5 1.8 4.2 5.0 1.0 3.7 1.4 0.0 0.0 0.0 0.0 0.0 0.0 0.0 0.1 0.0
0.8 0.8 0.8 0.8 0.7 1.3 0.8 0.8 1.0 1.2 1.0 1.8 3.0 2.6 4.2 2.9 4.1 5.0 8.0 8.1 8.9 6.1 3.6 4.9 5.1 6.7 6.8 3.1 5.8 2.1 2.7 3.5 3.6 0.4 0.7 2.0 2.3 2.6
0.2 0.4 0.2 0.6 1.4 1.3 2.2 2.0 2.0 1.2 1.3 1.4 1.2 0.6 1.6 1.2 1.1 1.4 3.2 7.4 8.6 9.5 7.5 9.5 8.0 8.7 15.0 14.3 14.3 10.9 8.4 9.3 7.6 6.2 4.8 4.2 2.7 2.4
0.1 0.1 0.1 2.5 2.0 1.1 0.9 1.3 2.1 1.8 1.2 0.8 0.7 1.6 1.1 1.2 1.1 0.5 1.4 3.3 5.0 4.3 5.2 13.1 17.5 16.6 20.8 19.6 13.8 10.9 9.5 10.6 10.9 7.8 5.7 4.1 3.6 1.6
5.6 6.0 6.2 3.7 4.6 2.8 3.0 4.1 3.9 4.7 4.3 3.0 2.9 4.4 9.2 6.5 7.0 6.8 8.3 8.8 8.8 10.9 12.3 10.9 15.9 14.3 14.5 14.3 11.3 7.9 6.5 6.2 5.8 7.1 9.4 6.1 4.8 7.4
10.6 10.4 9.8 9.4 9.9 10.0 11.5 10.9 10.5 11.6 12.7 15.9 23.1 23.0 22.8 19.9 17.2 14.5 12.3 11.6 12.5 9.9 11.3 11.4 11.0 10.7 10.6 13.1 11.0 7.8 8.6 5.7 4.3 3.9 5.8 7.3 8.5 7.9
6.3 6.4 6.5 7.6 7.4 12.1 13.9 10.9 14.2 22.8 25.1 29.1 28.5 28.6 24.3 22.4 21.9 20.0 18.8 18.7 18.6 16.7 15.2 13.9 13.3 14.3 17.3 15.6 14.8 13.5 10.8 11.1 8.0 8.3 9.7 11.3 12.5 11.8
7.7 13.9 19.3 14.4 16.7 19.7 21.1 21.6 21.5 21.8 22.9 22.2 21.5 20.8 18.6 17.1 16.6 13.7 13.5 12.6 13.9 11.6 10.9 11.7 10.9 10.7 10.2 11.7 14.8 13.2 12.3 11.8 10.4 11.8 10.1 13.2 12.9 12.5
17.7 19.8 20.6 20.1 19.2 19.2 19.0 18.2 15.7 14.9 13.2 11.8 10.6 9.6 9.4 8.5 7.8 5.6 5.4 6.9 7.2 5.8 5.4 5.4 7.1 7.8 7.9 7.5 7.0 10.0 8.6 8.2 7.9 7.4 7.4 11.2 12.6 13.8
14.2 11.7 14.5 13.5 11.7 10.0 9.0 8.4 9.0 7.8 4.7 5.4 5.5 4.5 2.7 2.0 2.4 1.9 1.6 1.4 1.9 1.6 1.7 2.8 3.6 5.8 8.3 8.6 5.8 4.1 7.0 5.2 5.0 5.4 4.7 6.4 10.5 10.6
7.4 7.2 7.7 6.3 5.1 4.5 4.5 4.4 4.3 2.5 2.2 1.2 1.7 1.6 2.1 2.5 2.1 1.3 1.0 2.1 1.5 0.6 0.6 0.5 0.6 2.1 7.0 10.8 9.5 3.5 3.0 7.8 4.7 4.0 3.8 4.5 4.1 5.5
5.5 5.3 4.6 4.5 4.6 4.3 3.8 3.5 4.1 4.2 1.9 5.1 3.7 4.6 5.2 5.6 4.2 2.5 4.3 3.5 3.3 3.0 1.9 0.5 0.1 1.3 2.2 3.2 7.2 3.8 1.9 1.8 2.1 2.4 4.1 4.9 3.1 5.0
4.9 4.7 3.1 3.7 2.9 2.7 3.4 3.1 3.4 2.9 3.5 4.2 3.4 2.3 3.0 3.0 3.6 2.3 2.5 2.7 2.1 2.1 1.1 0.5 0.4 1.2 2.3 3.2 3.8 4.0 2.0 2.5 1.2 1.3 2.5 3.9 8.1 11.2
3.4 2.5 2.6 2.6 2.2 2.1 2.3 2.6 2.5 2.3 2.6 4.3 3.3 2.6 2.7 3.4 2.5 2.4 2.1 1.9 2.1 1.6 1.2 1.9 1.8 1.7 1.7 1.4 1.9 4.2 2.3 3.3 1.7 3.2 3.2 2.1 3.6 2.4